Regional Weather Roundup
Issued by NWS Mt. Holly, NJ

Home | Current Version | Previous Version | Text Only | Print | Product List | Glossary On
Versions: 1 2 3 4 5 6 7 8 9 10 11 12 13 14 15 16 17 18 19 20 21 22 23 24 25 26 27 28 29 30 31 32 33 34 35 36 37 38 39 40 41 42 43 44 45 46 47 48 49 50
000
ASUS41 KPHI 020311
RWRPHI

REGIONAL WEATHER ROUNDUP
NATIONAL WEATHER SERVICE MOUNT HOLLY NJ
1100 PM EDT WED APR 01 2015

NOTE:  "FAIR" INDICATES FEW OR NO CLOUDS BELOW 12,000 FEET WITH NO
SIGNIFICANT WEATHER AND/OR OBSTRUCTIONS TO VISIBILITY.

 * = STATION DOES NOT REPORT PRECIPITATION (E.G. RAIN, SNOW, ETC.)
        OR FOG.

NJZ015>026-020400-
SOUTHERN NEW JERSEY

CITY           SKY/WX    TMP DP  RH WIND       PRES   REMARKS
POMONA         CLEAR     37  30  75 NW3       30.23R
RIO GRANDE*      N/A    N/A N/A N/A MISG        N/A
MILLVILLE      CLEAR     33  26  75 CALM      30.23R
WRIGHTSTOWN    CLEAR     38  26  61 S2        30.18F
MOUNT HOLLY    CLEAR     35  26  69 CALM      30.22S
TRENTON        CLEAR     41  24  51 CALM      30.21S

$$
NJZ001>014-020400-
NORTHERN NEW JERSEY

CITY           SKY/WX    TMP DP  RH WIND       PRES   REMARKS
SUSSEX         CLEAR     29  20  69 CALM      30.20R
ANDOVER*         N/A     30  24  78 CALM      30.19S
MORRISTOWN     CLEAR     34  23  64 CALM      30.21S
NEWARK         CLEAR     44  13  28 NW3       30.21S
TETERBORO      CLEAR     41  16  36 CALM      30.20S
CALDWELL       CLEAR     35  19  52 CALM      30.21S
SOMERVILLE     CLEAR     32  22  66 CALM      30.20S
ALLAIRE*       CLEAR     37  27  65 S3        30.21F
TOMS RIVER*    CLEAR     30  25  80 CALM      30.23S

$$
PAZ043-044-047-054-055-060>062-066>071-020400-
EASTERN PENNSYLVANIA

CITY           SKY/WX    TMP DP  RH WIND       PRES   REMARKS
PHILADELPHIA   CLEAR     45  22  40 CALM      30.23R
NORTH PHILA    CLEAR     41  22  46 CALM      30.24R
BLUE BELL      CLEAR     36  28  75 CALM      30.21S
DOYLESTOWN     CLEAR     34  25  69 CALM      30.21R
QUAKERTOWN*    CLEAR     32  25  74 CALM      30.21R
POTTSTOWN      CLEAR     34  23  64 CALM      30.23R
LANCASTER      CLEAR     38  28  67 CALM      30.21R
COATESVILLE    CLEAR     41  27  56 S3        30.22R
READING        CLEAR     40  25  55 CALM      30.20R
ALLENTOWN      FAIR      36  25  64 CALM      30.20R
MOUNT POCONO   CLEAR     26  20  77 CALM      30.14S
HAZLETON       CLEAR     34  27  75 CALM      30.19R
WILKES BARRE   CLEAR     35  20  54 E6        30.17R WCI  30

$$
DEZALL-MDZ008-012-015-019-020-020400-
DELAWARE AND EASTERN MARYLAND

CITY           SKY/WX    TMP DP  RH WIND       PRES   REMARKS
WILMINGTON     CLEAR     44  24  45 CALM      30.24R
DOVER          CLEAR     40  37  87 SW5       30.24R
GEORGETOWN     CLEAR     39  29  67 SW6       30.26R WCI  35
EASTON         CLEAR     42  33  70 CALM      30.28R
PATUXENT       CLEAR     44  29  55 S7        30.25R
OCEAN CITY     CLEAR     41  28  60 SW7       30.26R
WALLOPS ISLAND CLEAR     39  33  79 S9        30.27S WCI  33
CAMBRIDGE      CLEAR     41  34  75 S3        30.25R
SALISBURY      CLEAR     37  26  64 S3        30.26R

$$
PAZ001-021-NYZ056-072-MDZ011-DCZ001-020400-
OTHER NEARBY LOCATIONS

CITY           SKY/WX    TMP DP  RH WIND       PRES   REMARKS
HARRISBURG     CLEAR     38  30  73 CALM      30.20S
STATE COLLEGE  CLEAR     37  29  74 CALM      30.16F
WILLIAMSPORT   CLEAR     35  28  75 CALM      30.17F
BINGHAMTON     CLEAR     32  12  43 SE5       30.13S WCI  27
NEW YORK CITY  CLEAR     45  10  24 VRB3      30.23R
BALTIMORE      CLEAR     42  27  55 CALM      30.22R
WASHINGTON DC  CLEAR     52  33  48 CALM      30.24R

$$



USA.gov is the U.S. government's official web portal to all federal, state and local government web resources and services.